Overview Statistics Trail Chart Weather Telemetry Raw packets
 

This is the latest recevied weather packets stored in our database for station/object DL2AKT-20. If no packets are shown the sender has not sent any weather packets the latest 10 day(s).

<< 24 25 26 27 28 29 30 >>
Time Temp. Humidity Pressure Rain* Wind** Luminosity Snow
1777628069 20.56° C 28% 1031.7 hPa - - - -
1777627169 20.56° C 27% 1031.8 hPa - - - -
1777626269 20° C 29% 1031.8 hPa - - - -
1777625369 19.44° C 29% 1031.9 hPa - - - -
1777624469 18.89° C 30% 1032 hPa - - - -
1777623569 18.33° C 31% 1032 hPa - - - -
1777622669 17.78° C 33% 1032.3 hPa - - - -
1777621769 16.67° C 34% 1032.2 hPa - - - -
1777620868 16.67° C 33% 1032.3 hPa - - - -
1777619967 16.67° C 34% 1032.2 hPa - - - -
1777619067 15.56° C 35% 1032.2 hPa - - - -
1777618169 15.56° C 35% 1032.1 hPa - - - -
1777617269 15° C 36% 1032 hPa - - - -
1777616369 14.44° C 37% 1031.8 hPa - - - -
1777615468 13.89° C 37% 1031.8 hPa - - - -
1777614568 13.33° C 38% 1031.7 hPa - - - -
1777613668 12.78° C 38% 1031.7 hPa - - - -
1777612768 12.22° C 39% 1031.9 hPa - - - -
1777611868 12.22° C 39% 1031.8 hPa - - - -
1777610968 12.22° C 39% 1031.8 hPa - - - -
1777610068 12.22° C 39% 1031.8 hPa - - - -
1777609168 11.67° C 39% 1031.6 hPa - - - -
1777608267 11.67° C 39% 1031.6 hPa - - - -
1777607367 12.78° C 38% 1031.6 hPa - - - -
1777606475 12.22° C 38% 1031.5 hPa - - - -

* Rain since midnight (hover to see other rain measurements)
** Current wind speed in m/s (hover to see current wind gust speed)